Other Public Products
Issued by NWS Grand Forks, ND

Home | Current Version | Previous Version | Text Only | Print | Product List | Glossary Off
Versions: 1 2 3 4 5 6 7 8 9 10 11 12 13 14 15 16 17 18 19 20 21 22 23 24 25 26 27 28 29 30 31 32 33 34 35 36 37 38 39 40 41 42 43 44 45 46 47 48 49 50

000
FPUS83 KFGF 261831
OPUFGF
PRAIRIE TO PINES WEATHER ROUNDUP
NATIONAL WEATHER SERVICE EASTERN NORTH DAKOTA/GRAND FORKS ND
100 PM CDT FRI AUG 26 2016

 **SATELLITE DATA USED TO AUGMENT SKY COVER AT AUTOMATED STATIONS**
 *****  WEATHER ACROSS EASTERN NORTH DAKOTA  *****

CITY           SKY/WX    TMP DP  RH WIND       PRES   REMARKS
GRAND FORKS    PTSUNNY   76  53  44 S10       30.04F
6HR MIN TEMP:  50; 6HR MAX TEMP:  76;

GRAND FORKS AF FAIR      75  50  40 S13       30.05F
GRAND CITY NWS   N/A     75 N/A N/A S15         N/A
BUXTON           N/A     79  55  42 S9          N/A
DEVILS LAKE    FAIR      69  53  56 SW13      30.06F
6HR MIN TEMP:  56; 6HR MAX TEMP:  69;

FARGO          FAIR      75  48  38 SW12      30.08F
6HR MIN TEMP:  50; 6HR MAX TEMP:  76;

WAHPETON ARPT  FAIR      73  45  35 S6        30.12S
$$

 *****  WEATHER ACROSS CENTRAL AND WESTERN NORTH DAKOTA  *****

CITY           SKY/WX    TMP DP  RH WIND       PRES   REMARKS
JAMESTOWN      FAIR      67  52  58 SW9       30.10S
6HR MIN TEMP:  47; 6HR MAX TEMP:  68;

BISMARCK       MOSUNNY   68  52  56 S10       30.10F
6HR MIN TEMP:  44; 6HR MAX TEMP:  68;

MINOT          FAIR      75  43  31 SW9       30.01F
6HR MIN TEMP:  53; 6HR MAX TEMP:  75;

MINOT AFB      FAIR      74  43  32 SW13      30.00F
6HR MIN TEMP:  51; 6HR MAX TEMP:  76;

GARRISON         N/A     72  50  45 SW14      30.05F
6HR MIN TEMP:  46; 6HR MAX TEMP:  73;

WILLISTON      PTSUNNY   74  44  34 S8        30.01F
6HR MIN TEMP:  48; 6HR MAX TEMP:  74;

DICKINSON      PTSUNNY   71  39  31 SW14      30.03F
6HR MIN TEMP:  44; 6HR MAX TEMP:  73;

HETTINGER      PTSUNNY   72  50  45 S16G25    30.08F
6HR MIN TEMP:  46; 6HR MAX TEMP:  72;

$$

 *****  OTHER OBSERVATIONS NORTHEAST NORTH DAKOTA  *****

CITY           SKY/WX    TMP DP  RH WIND       PRES   REMARKS
WALHALLA       FAIR      75  75 100 SW9G17    30.00F
LANGDON        FAIR      73  48  40 SW13G20   30.04S
CAVALIER       FAIR      73  50  43 S12G17    30.01F
GRAFTON        FAIR      75  52  43 S10G18    30.04F
CANDO          FAIR      72  52  49 SW12      30.06S
FORT TOTTEN      N/A     69  54  58 S7        29.95
ROLLA          FAIR      70  50  49 SW10      30.03F
RUGBY          NOT AVBL
 ***** THE ABOVE OBSERVATIONS ARE NON NWS ARE NOT QUALITY
        CONTROLLED AND MAY MIS-REPORT RAIN FOR SNOW...
$$

 *****  OTHER OBSERVATIONS SOUTHEAST NORTH DAKOTA *****

CITY           SKY/WX    TMP DP  RH WIND       PRES   REMARKS
COOPERSTOWN    NOT AVBL
VALLEY CITY    FAIR      72  52  49 SW12      30.12R
OAKES            N/A    N/A N/A N/A MISG        N/A
GWINNER        FAIR      70  55  60 SW12      30.13S
SHEYENNE NWR     N/A     72  55  54 W7        29.95S
BUFFALO          N/A     73  47  38 SW8         N/A
WYNDMERE         N/A     75  54  46 S6          N/A
 ***** THE ABOVE OBSERVATIONS ARE NON NWS ARE NOT QUALITY
       CONTROLLED AND MAY MIS-REPORT RAIN FOR SNOW...
$$

  *****  WEATHER ACROSS NORTHERN MINNESOTA  *****

CITY           SKY/WX    TMP DP  RH WIND       PRES   REMARKS
FLAG ISLAND    FAIR      70  54  56 S5        30.04F HAZE
WARROAD        FAIR      72  52  49 SW5       30.06S
ROSEAU         FAIR      75  48  38 SW8       30.06R
HALLOCK        FAIR      77  43  29 S15       30.02F
THF RVR FALLS  FAIR      74  48  39 SW12      30.09S
6HR MIN TEMP:  47; 6HR MAX TEMP:  74;

HALSTAD          N/A     74  52  45 S14         N/A
FOSSTON        FAIR      72  48  43 SW14      30.10F
BAUDETTE       FAIR      72  50  45 VRB5      30.07F
6HR MIN TEMP:  46; 6HR MAX TEMP:  72;

WASKISH        FAIR      72  52  49 SW8       30.10R
CROOKSTON      FAIR      73  52  46 S14       30.07F
$$
  *****  WEATHER ACROSS CENTRAL AND WEST MINNESOTA  *****

CITY           SKY/WX    TMP DP  RH WIND       PRES   REMARKS
BEMIDJI        FAIR      72  47  40 SW6       30.11S
PARK RAPIDS    FAIR      73  50  44 MISG      30.12F
6HR MIN TEMP:  51; 6HR MAX TEMP:  73;

WADENA         FAIR      72  52  49 SW9       30.13F
DETROIT LAKES  FAIR      72  50  46 SW9       30.13F
MOORHEAD       FAIR      73  52  46 S10       30.10S
FERGUS FALLS   FAIR      72  52  49 SW5       30.14S
ELBOW LAKE     FAIR      71  53  53 W7        30.15S
MORRIS MN      FAIR      73  52  46 SE6       30.14S
STAPLES        FAIR      73  48  40 SW8       30.13F
WHEATON        FAIR      73  55  53 S6        30.15S
$$
  *****  WEATHER ELSEWHERE ACROSS MINNESOTA  *****

CITY           SKY/WX    TMP DP  RH WIND       PRES   REMARKS
DULUTH         FAIR      72  49  44 N5        30.14F
6HR MIN TEMP:  53; 6HR MAX TEMP:  72;

INTRNTL FALLS  FAIR      68  51  54 CALM      30.09F
6HR MIN TEMP:  41; 6HR MAX TEMP:  71;

ELY            PTSUNNY   64  48  55 CALM      30.13F
CLOQUET        FAIR      70  46  43 SW3       30.14F
BRAINERD       PTSUNNY   72  51  47 VRB6      30.14F
6HR MIN TEMP:  49; 6HR MAX TEMP:  72;

HIBBING        FAIR      69  48  47 SW8       30.13F
6HR MIN TEMP:  45; 6HR MAX TEMP:  69;

ALEXANDRIA     FAIR      70  49  47 VRB6      30.16F
6HR MIN TEMP:  52; 6HR MAX TEMP:  71;

SAINT CLOUD    FAIR      70  54  56 S6        30.15F
6HR MIN TEMP:  49; 6HR MAX TEMP:  70;

MINNEAPOLIS    CLOUDY    70  53  54 SE5       30.16F
6HR MIN TEMP:  57; 6HR MAX TEMP:  71;

$$

  *****  WEATHER ACROSS SOUTH DAKOTA  *****

CITY           SKY/WX    TMP DP  RH WIND       PRES   REMARKS
SIOUX FALLS    PTSUNNY   74  57  55 S10       30.14F
6HR MIN TEMP:  49; 6HR MAX TEMP:  74;

BROOKINGS      FAIR      69  53  56 S8        30.15F
WATERTOWN      FAIR      69  51  52 MISG      30.16S
6HR MIN TEMP:  48; 6HR MAX TEMP:  69;

HURON          CLOUDY    68  51  54 SW7       30.16S
6HR MIN TEMP:  45; 6HR MAX TEMP:  71;

SISSETON         N/A     73  52  47 S9        30.13R
ABERDEEN       CLOUDY    69  51  52 SW9       30.15S
6HR MIN TEMP:  42; 6HR MAX TEMP:  72;

MITCHELL       PTSUNNY   71  53  52 SE7       30.15F
PIERRE         LGT RAIN  58  57  97 E10       30.13F FOG
6HR MIN TEMP:  51; 6HR MAX TEMP:  59; 6HR PCP:  0.13;

MOBRIDGE       CLOUDY    60  53  77 S13       30.11F
RAPID CITY     CLOUDY    60  53  77 S10       30.11F
6HR MIN TEMP:  52; 6HR MAX TEMP:  58; 6HR PCP:  0.17;

$$

  *****  SOME WEATHER IN NEARBY STATES *****

CITY           SKY/WX    TMP DP  RH WIND       PRES   REMARKS
GLASGOW MT     SUNNY     66  47  50 W13G21    30.02F
6HR MIN TEMP:  53; 6HR MAX TEMP:  68; 6HR PCP:  0.01;

GREAT FALLS MT MOSUNNY   62  42  47 N3        30.10F
6HR MIN TEMP:  47; 6HR MAX TEMP:  63;

CHEYENNE WY    SUNNY     69  42  37 VRB5      30.15F
6HR MIN TEMP:  51; 6HR MAX TEMP:  70; 6HR PCP: TRACE;

SCOTTSBLUFF NE PTSUNNY   69  57  65 S5        30.11S
6HR MIN TEMP:  53; 6HR MAX TEMP:  68; 6HR PCP:  0.01;

OMAHA NE       CLOUDY    69  60  73 SE8       30.13R
6HR MIN TEMP:  59; 6HR MAX TEMP:  70;

DES MOINES IA  CLOUDY    70  60  70 NE8       30.13F
6HR MIN TEMP:  65; 6HR MAX TEMP:  71; 6HR PCP:  0.01;

DAVENPORT IA   FAIR      76  63  64 E10       30.15F
6HR MIN TEMP:  63; 6HR MAX TEMP:  76;

CHICAGO IL     PTSUNNY   80  60  50 VRB3      30.14F
6HR MIN TEMP:  66; 6HR MAX TEMP:  81;

EAU CLAIRE WI  FAIR      69  52  54 SW6       30.17S
6HR MIN TEMP:  54; 6HR MAX TEMP:  71;

LA CROSSE WI   FAIR      72  59  63 W5        30.16F
6HR MIN TEMP:  59; 6HR MAX TEMP:  72;

$$

  *****  SOME NATIONAL WEATHER *****

CITY           SKY/WX    TMP DP  RH WIND       PRES   REMARKS
LA GUARDIA NY  FAIR      90  68  48 NW16G22   29.96F HX  94
6HR MIN TEMP:  79; 6HR MAX TEMP:  91;                              C1F1C2F2C3F3C4F4C5F5C6F6C7F7C8F8C9F9CaFaCbFbCcFcCdFdCe!


USA.gov is the U.S. government's official web portal to all federal, state and local government web resources and services.